Location: *
(17.3280°S, 114.7300°W)
Time: 15:42:42
(UTC+00:00)

Hubble Space Telescope - Pass Details

Date: 28 October 2020
Orbit: 536 x 540 km, 28.5° (Epoch: 29 November)

Event Time Altitude Azimuth Distance (km) Brightness Sun altitude
Exits shadow 11:52:28 10° 226° (SW) 1,816 3.2 -16.7°
Reaches altitude 10° 11:52:30 10° 226° (SW) 1,800 3.2 -16.7°
Maximum altitude 11:56:11 29° 164° (SSE) 997 2.5 -15.9°
Drops below altitude 10° 11:59:51 10° 102° (ESE) 1,794 4.8 -15.0°
Sets 12:02:19 0° 91° (E) 2,682 5.8 -14.5°
